2021 LX3
ephemeris date magn radius delta ra dec elong phase
Today20 Oct 202525.01.263 AU2.247 AU13h56m-15°15'6.7°5.3°
2021 LX3 - 2025-10-20
astro.vanbuitenen.nl


 
-1 year
-1 month
-1 day
Now
+1 day
+1 month
+1 year

The interactive orbit chart above shows the body's path through the solar system and its position at the given date. Green and blue lines are shown perpendicular to the ecliptic plane: Green if the path is above the ecliptic plane, blue if it is below. (Left-click and drag to rotate the view; Right-click and drag to move the view; Use scroll wheel to zoom in our out.)

The orbital elements of 2021 LX3 are:

            e (Eccentricity)                : 0.1644199
            a (Semimajor axis)              : 1.0859322
            i (Inclination)                 : 9.15100
            Ω (Longitude of ascending node) : 254.62998
            ω (Argument of perihelion)      : 147.58725
            M (Mean anomaly)                : 26.18828
            Epoch                           : 2025 May 05

            L (Longitude of perihelion)     : 222.54842
            B (Latitude of perihelion)      : 4.89018
            P (Orbital period in years)     : 1.13            
        

The light curve chart below shows the estimated development of the minor planet's magnitude.


The all-sky chart below shows the path of the minor planet over the same period as the light curve. The current position is marked yellow.





The following chart shows the path of the minor planet in the next few days. The field of view is optimized for (~10x50) binoculars and finderscopes.




Ephemerides:
Date       Time       RA (2000)    DEC (2000)    delta   radius  elong  phase   PA    magn
2025-10-20 00:00 UT   13 56 26.9   -15 15 58     2.247    1.263    6.7    5.3   138   25.0 
2025-10-20 04:13 UT   13 57 00.1   -15 18 26     2.247    1.263    6.7    5.3   138   25.0 
2025-10-21 00:00 UT   13 59 35.9   -15 29 54     2.248    1.264    6.5    5.1   139   25.0 
2025-10-22 00:00 UT   14 02 45.3   -15 43 41     2.248    1.264    6.3    5.0   139   24.9 
2025-10-23 00:00 UT   14 05 55.0   -15 57 18     2.249    1.264    6.1    4.8   139   24.9 
2025-10-24 00:00 UT   14 09 05.2   -16 10 46     2.249    1.264    5.9    4.6   140   24.9 
2025-10-25 00:00 UT   14 12 15.7   -16 24 03     2.250    1.264    5.7    4.5   140   24.9 
2025-10-26 00:00 UT   14 15 26.7   -16 37 11     2.250    1.264    5.5    4.3   141   24.9 
2025-10-27 00:00 UT   14 18 38.1   -16 50 08     2.251    1.264    5.3    4.2   141   24.9 
2025-10-28 00:00 UT   14 21 49.9   -17 02 55     2.251    1.264    5.1    4.0   142   24.9 
2025-10-29 00:00 UT   14 25 02.2   -17 15 32     2.251    1.264    4.9    3.9   142   24.9 
2025-10-30 00:00 UT   14 28 14.8   -17 27 57     2.252    1.264    4.7    3.7   143   24.9 


    Terminology:
            
    delta:  distance between minor planet and earth in AU
    radius: distance between minor planet and sun in AU
    magn:   magnitude (brightness) estimate    
    ra:     right ascension in hours (24h = 360deg)
    dec:    declination in degrees
    elong:  elongation in degrees (angle sun-earth-minor planet)    
    phase:  phase angle in degrees (angle sun-minor planet-earth)        
    AU:     Astronomical Unit (mean distance between earth and sun: 149597870.7 km
    

Orbital elements provided by the MPC (Minor Planet Center).
Calculations by a modified version of AAPlus, a C# implementation of the AA+ project by PJ Naughter from the algorithms presented in the book "Astronomical Algorithms" by Jean Meeus.
NGC2000 dso catalog and star labels from VizieR as provided by the Strasbourg astronomical Data Center.
Tycho2 catalog from the ESO archive.